User: anonymous   Login
Location: Fort Wayne
(41.1310°N, 85.1290°W)
Time: 10:33:38
(UTC-04:00)
Language:

CZ-2C R/B - Orbit

View from above orbital plane
View from above orbital plane
View from above satellite
View from above satellite

Ground track
Ground track

The orbit data is extracted from the following two-line orbital elements,

1 36089U 09061B   16150.67754315  .00000005  00000-0  12421-4 0  9992
2 36089  98.0516 163.5991 0082861 146.0664 334.4487 14.49578235346142
Epoch (UTC): 29 May 2016 16:15:39
Eccentricity: 0.0082861
inclination: 98.0516°
perigee height: 668 km
apogee height: 786 km
right ascension of ascending node: 163.5991°
argument of perigee: 146.0664°
revolutions per day: 14.49578235
mean anomaly at epoch: 334.4487°
orbit number at epoch: 34614

The dashed part of the orbit path shows where the satellite is in the earth's shadow,  

DLR